Regional Weather Roundup
Issued by NWS

Home | Current Version | Previous Version | Text Only | Print | Product List | Glossary Off
Versions: 1 2 3 4 5 6 7 8 9 10 11 12 13 14 15 16 17 18 19 20 21 22 23 24 25 26 27 28 29 30 31 32 33 34 35 36 37 38 39 40 41 42 43 44 45 46 47 48 49 50

615
ASUS43 KLOT 091203
RWRIL

ILLINOIS REGIONAL WEATHER ROUNDUP
NATIONAL WEATHER SERVICE CHICAGO/ROMEOVILLE IL
600 AM CST TUE FEB 09 2016

NOTE: "FAIR" INDICATES FEW OR NO CLOUDS BELOW 12,000 FEET WITH NO
SIGNIFICANT WEATHER AND/OR OBSTRUCTIONS TO VISIBILITY.

* THESE STATIONS ARE NOT UNDER NWS QUALITY CONTROL. THEY ALSO MAY NOT
  REPORT WEATHER SUCH AS PRECIPITATION OR FOG.

ILZ001-002-007-009-015-016-024-091300-
NORTHWEST ILLINOIS

CITY           SKY/WX    TMP DP  RH WIND       PRES   REMARKS
MOLINE         MOCLDY    14   5  67 NW14G23   29.91R WCI  -1
6HR MIN TEMP:  14; 6HR MAX TEMP:  17; 6HR PCP:  0.01;

STERLING*      CLEAR     16   7  67 NW15G23   29.83R WCI   1
$$

ILZ003-004-008-010-011-017-018-091300-
NORTH CENTRAL ILLINOIS

CITY           SKY/WX    TMP DP  RH WIND       PRES   REMARKS
ROCKFORD       LGT SNOW  14   8  77 N15       29.84R BLWGSNOWWCI  -1
6HR MIN TEMP:  14; 6HR MAX TEMP:  18; 6HR PCP:  0.01;

FREEPORT*      MOCLDY    12   6  77 NW12G17   29.86R WCI  -2
$$

ILZ005-006-012>014-019>023-091300-
NORTHEAST ILLINOIS

CITY           SKY/WX    TMP DP  RH WIND       PRES   REMARKS
CHICAGO-OHARE  FLURRIES  17  11  77 NW17      29.76R WCI   1
6HR MIN TEMP:  17; 6HR MAX TEMP:  21; 6HR PCP:  0.02;

CHICAGO-MIDWAY LGT SNOW  18  11  74 NW14      29.77R FOG     WCI   4
6HR MIN TEMP:  18; 6HR MAX TEMP:  23; 6HR PCP: TRACE;

AURORA         LGT SNOW  17  11  77 N16       29.79R WCI   2
6HR MIN TEMP:  17; 6HR MAX TEMP:  23; 6HR PCP: TRACE;

LANSING*       LGT SNOW  19  15  84 NW9       29.76R WCI   7
WAUKEGAN       FLURRIES  15  10  80 NW12G20   29.76R WCI   2
6HR MIN TEMP:  15; 6HR MAX TEMP:  19; 6HR PCP: TRACE;

DUPAGE AIRPORT LGT SNOW  16  10  77 NW15      29.77R WCI   1
6HR MIN TEMP:  16; 6HR MAX TEMP:  21; 6HR PCP: TRACE;

WHEELING       CLOUDY    16  11  80 NW15      29.78R WCI   1
6HR MIN TEMP:  16; 6HR MAX TEMP:  20; 6HR PCP: TRACE;

NORTHERLY ISL    N/A     19  14  81 W14         N/A  WCI   6
$$

LMZ740>746-091300-
SOUTHERN LAKE MICHIGAN

STATION/POSITION SKY/WX   TEMP    WIND        PRES    VSBY  WAVE
                          AIR SEA DIR/SP/G                  HT/PER
                          (F)     (DEG/KT/KT) (MB)    (MI)  (FT/S)
HARRISON CRIB              19     310/ 17/ 19   N/A
BURNHAM HARBOR             19     310/ 13/ 15   N/A
CALUMET HARBOR             18     290/ 11/ 15 1006.9R
BURNS HARBOR               22     300/ 18/ 20 1007.1R
MICHIGAN CITY              24     260/ 24/ 27   N/A
$$

ILZ025>027-034>036-040-047-049-050-058-095>099-091300-
WEST-CENTRAL ILLINOIS

CITY           SKY/WX    TMP DP  RH WIND       PRES   REMARKS
QUINCY         LGT SNOW  15   9  76 NW21      29.94R WCI  -2
MACOMB*        MOCLDY    15  11  85 NW20G25   29.93R WCI  -2
$$

ILZ028>032-037-038-041>044-048-051>054-059>061-091300-
CENTRAL ILLINOIS

CITY           SKY/WX    TMP DP  RH WIND       PRES   REMARKS
BLOOMINGTON    LGT SNOW  16  12  84 NW14      29.82R FOG     WCI   2
DECATUR        LGT SNOW  18  11  74 NW15      29.84R WCI   4
PEORIA         LGT SNOW  15   9  76 NW9G21    29.87R WCI   3
6HR MIN TEMP:  15; 6HR MAX TEMP:  18; 6HR PCP: TRACE;

SPRINGFIELD    CLOUDY    17  11  77 NW17G23   29.88R WCI   1
6HR MIN TEMP:  17; 6HR MAX TEMP:  20; 6HR PCP: TRACE;

TAYLORVILLE    NOT AVBL
$$

ILZ033-039-045-046-055>057-062-063-091300-
EAST-CENTRAL ILLINOIS

CITY           SKY/WX    TMP DP  RH WIND       PRES   REMARKS
CHAMPAIGN      FLURRIES  19  13  77 NW14      29.81R WCI   6
MATTOON        FLURRIES  18  12  77 NW16      29.82R WCI   3
$$

ILZ079-100>102-091300-
SOUTHWEST ILLINOIS

CITY           SKY/WX    TMP DP  RH WIND       PRES   REMARKS
BELLEVILLE     FLURRIES  19  13  77 NW8       29.91R WCI   9
CAHOKIA*       LGT SNOW  21  13  71 NW15      29.93R WCI   8
SPARTA*        LGT SNOW  19  16  87 NW7       29.92R WCI  10
$$

ILZ064>066-069>071-074>076-080>082-084>086-088>090-092>094-091300-
SOUTH-CENTRAL ILLINOIS

CITY           SKY/WX    TMP DP  RH WIND       PRES   REMARKS
CARBONDALE     LGT SNOW  20  15  81 NW10      29.92R WCI   9
6HR MIN TEMP:  20; 6HR MAX TEMP:  24; 6HR PCP: TRACE;

MT. VERNON     CLOUDY    19   9  63 W7        29.89R WCI  10
CENTRALIA*     CLOUDY    20  14  76 NW13G20   29.88R WCI   8
SALEM*         CLOUDY    20  11  68 NW13      29.88R WCI   8
$$

ILZ067-068-072-073-078-083-087-091-091300-
SOUTHEAST ILLINOIS

CITY           SKY/WX    TMP DP  RH WIND       PRES   REMARKS
LAWRENCEVILLE  LGT SNOW  20  15  81 NW12      29.86R WCI   8
HARRISBURG*    CLOUDY    21  13  71 NW16      29.90R WCI   7
ROBINSON*      LGT SNOW  18  15  85 NW12      29.85S WCI   6
CARMI*         FLURRIES  21  17  85 W9        29.87S WCI  11
$$

ABBREVIATIONS USED IN REMARKS
   TC - TEMPERATURE IN CELSIUS
  WCI - WIND CHILL INDEX
   HX - HEAT INDEX
  VSB - VISIBILITY
$$





USA.gov is the U.S. government's official web portal to all federal, state and local government web resources and services.